This demonstration page uses our WeatherBlox Daily Observations layout. Learn more.

Hourly Observations for May 28, 2016

Temp ( °F °C ) Dew Point ( °F °C ) Humidity (%) Winds ( mph kmh ) Pressure ( in mb ) Visibility ( mi km ) Precip ( " mm )
12:15 am 00:15 Partly Cloudy 73 23 70 21 89 89 Calm 30.12 1020 10 16.0934 0 0
12:35 am 00:35 Clear 73 23 70 21 89 89 S 8 13 30.09 1019 10 16.0934 0 0
12:55 am 00:55 Clear 73 23 70 21 89 89 SSW 12 19 30.09 1019 10 16.0934 0 0
1:15 am 01:15 Clear 73 23 70 21 89 89 S 12 19 30.09 1019 10 16.0934 0 0
1:35 am 01:35 Clear 73 23 72 22 94 94 S 9 15 30.09 1019 10 16.0934 0 0
1:55 am 01:55 Clear 73 23 70 21 89 89 S 7 11 30.09 1019 10 16.0934 0 0
2:15 am 02:15 Clear 73 23 70 21 89 89 SSW 5 7 30.09 1019 10 16.0934 0 0
2:35 am 02:35 Clear 72 22 70 21 94 94 W 3 6 30.09 1019 10 16.0934 0 0
2:55 am 02:55 Clear 72 22 70 21 94 94 SW 5 7 30.09 1019 10 16.0934 0 0
3:15 am 03:15 Clear 72 22 70 21 94 94 Calm 30.09 1019 10 16.0934 0 0
3:35 am 03:35 Clear 70 21 70 21 100 100 Calm 30.09 1019 10 16.0934 0 0
3:55 am 03:55 Clear 70 21 70 21 100 100 SSW 6 9 30.09 1019 10 16.0934 0 0
4:15 am 04:15 Clear 70 21 70 21 100 100 SW 3 6 30.09 1019 10 16.0934 0 0
4:35 am 04:35 Clear 72 22 70 21 94 94 S 3 6 30.12 1020 10 16.0934 0 0
4:55 am 04:55 Clear 72 22 70 21 94 94 S 3 6 30.12 1020 10 16.0934 0 0
5:15 am 05:15 Clear 72 22 70 21 94 94 Calm 30.12 1020 10 16.0934 0 0
5:35 am 05:35 Clear 70 21 70 21 100 100 Calm 30.12 1020 10 16.0934 0 0
5:55 am 05:55 Sunny 68 20 68 20 100 100 Calm 30.12 1020 7 11.26538 0 0
6:15 am 06:15 Sunny 70 21 70 21 100 100 S 3 6 30.12 1020 10 16.0934 0 0
6:35 am 06:35 Sunny 70 21 70 21 100 100 Calm 30.15 1021 10 16.0934 0 0
6:55 am 06:55 Sunny 70 21 70 21 100 100 Calm 30.15 1021 7 11.26538 0 0
7:15 am 07:15 Sunny 72 22 70 21 94 94 Calm 30.15 1021 10 16.0934 0 0
7:35 am 07:35 Sunny 72 22 70 21 94 94 Calm 30.15 1021 10 16.0934 0 0
7:55 am 07:55 Sunny 73 23 70 21 89 89 S 5 7 30.15 1021 10 16.0934 0 0
8:15 am 08:15 Sunny 73 23 70 21 89 89 SSW 5 7 30.15 1021 10 16.0934 0 0
8:35 am 08:35 Sunny 75 24 70 21 83 83 S 6 9 30.15 1021 10 16.0934 0 0
8:55 am 08:55 Sunny 77 25 70 21 79 79 S 8 13 30.18 1022 10 16.0934 0 0
9:15 am 09:15 Sunny 79 26 72 22 79 79 SW 5 7 30.18 1022 10 16.0934 0 0
9:35 am 09:35 Sunny 79 26 72 22 79 79 SSW 6 9 30.18 1022 10 16.0934 0 0
9:55 am 09:55 Partly Cloudy 81 27 72 22 74 74 SSW 5 7 30.18 1022 10 16.0934 0 0
10:15 am 10:15 Sunny 81 27 72 22 74 74 S 5 7 30.15 1021 10 16.0934 0 0
10:35 am 10:35 Sunny 82 28 72 22 70 70 SW 5 7 30.15 1021 10 16.0934 0 0
10:55 am 10:55 Sunny 84 29 72 22 66 66 SSW 8 13 30.15 1021 10 16.0934 0 0
11:15 am 11:15 Sunny 86 30 72 22 62 62 SSE 5 7 30.18 1022 10 16.0934 0 0
11:35 am 11:35 Sunny 86 30 72 22 62 62 SSW 10 17 30.18 1022 10 16.0934 0 0
11:55 am 11:55 Sunny 86 30 72 22 62 62 S 9 15 30.18 1022 10 16.0934 0 0
12:15 pm 12:15 Sunny 88 31 70 21 55 55 SSW 10 17 30.15 1021 10 16.0934 0 0
12:35 pm 12:35 Sunny 88 31 72 22 59 59 S 8 13 30.15 1021 10 16.0934 0 0
12:55 pm 12:55 Sunny 90 32 72 22 55 55 SSW 8 13 30.12 1020 10 16.0934 0 0
1:15 pm 13:15 Sunny 90 32 70 21 52 52 S 5 7 30.12 1020 10 16.0934 0 0
1:35 pm 13:35 Sunny 91 33 70 21 49 49 S 8 13 30.12 1020 10 16.0934 0 0
1:55 pm 13:55 Partly Cloudy 90 32 70 21 52 52 S 7 11 30.12 1020 10 16.0934 0 0
2:15 pm 14:15 Partly Cloudy 91 33 70 21 49 49 S 8 13 30.12 1020 10 16.0934 0 0
2:35 pm 14:35 Sunny 91 33 68 20 46 46 S 13 20 30.12 1020 10 16.0934 0 0
2:55 pm 14:55 Sunny 91 33 68 20 46 46 SSE 12 19 30.09 1019 10 16.0934 0 0
3:15 pm 15:15 Partly Cloudy 91 33 68 20 46 46 SSW 7 11 30.09 1019 10 16.0934 0 0
3:35 pm 15:35 Partly Cloudy 91 33 68 20 46 46 S 14 22 30.09 1019 10 16.0934 0 0
3:55 pm 15:55 Partly Cloudy 91 33 68 20 46 46 S 15 24 30.09 1019 10 16.0934 0 0
4:15 pm 16:15 Partly Cloudy 91 33 68 20 46 46 SSW 12 19 30.09 1019 10 16.0934 0 0
4:35 pm 16:35 Sunny 91 33 68 20 46 46 SSW 8 13 30.06 1018 10 16.0934 0 0
4:55 pm 16:55 Sunny 91 33 66 19 44 44 S 12 19 30.06 1018 10 16.0934 0 0
5:15 pm 17:15 Sunny 91 33 66 19 44 44 SSW 15 24 30.06 1018 7 11.26538 0 0
5:35 pm 17:35 Sunny 91 33 68 20 46 46 SSW 13 20 30.06 1018 10 16.0934 0 0
5:55 pm 17:55 Sunny 90 32 64 18 43 43 S 16 26 30.06 1018 10 16.0934 0 0
6:15 pm 18:15 Sunny 90 32 64 18 43 43 S 9 15 30.06 1018 10 16.0934 0 0
6:35 pm 18:35 Sunny 88 31 66 19 49 49 S 10 17 30.09 1019 10 16.0934 0 0
6:55 pm 18:55 Sunny 88 31 64 18 46 46 S 8 13 30.09 1019 10 16.0934 0 0
7:15 pm 19:15 Sunny 88 31 68 20 52 52 S 9 15 30.12 1020 10 16.0934 0 0
7:35 pm 19:35 Sunny 86 30 68 20 55 55 S 8 13 30.12 1020 10 16.0934 0 0
7:55 pm 19:55 Sunny 84 29 68 20 58 58 S 6 9 30.12 1020 10 16.0934 0 0
8:15 pm 20:15 Sunny 84 29 68 20 58 58 S 6 9 30.12 1020 10 16.0934 0 0
8:35 pm 20:35 Clear 82 28 66 19 58 58 SSE 7 11 30.12 1020 10 16.0934 0 0
8:55 pm 20:55 Clear 82 28 66 19 58 58 SSE 6 9 30.12 1020 10 16.0934 0 0
9:15 pm 21:15 Clear 82 28 68 20 62 62 SSE 9 15 30.12 1020 10 16.0934 0 0
9:35 pm 21:35 Clear 81 27 68 20 66 66 SSE 7 11 30.15 1021 10 16.0934 0 0
9:55 pm 21:55 Clear 81 27 68 20 66 66 SSE 8 13 30.15 1021 10 16.0934 0 0
10:15 pm 22:15 Clear 79 26 68 20 70 70 S 8 13 30.15 1021 10 16.0934 0 0
10:35 pm 22:35 Clear 79 26 68 20 70 70 S 9 15 30.15 1021 10 16.0934 0 0
10:55 pm 22:55 Clear 77 25 68 20 74 74 SSW 13 20 30.15 1021 10 16.0934 0 0
11:15 pm 23:15 Clear 75 24 68 20 78 78 S 9 15 30.15 1021 10 16.0934 0 0
11:35 pm 23:35 Clear 77 25 68 20 74 74 SSW 12 19 30.15 1021 10 16.0934 0 0
11:55 pm 23:55 Clear 73 23 68 20 83 83 S 6 9 30.15 1021 10 16.0934 0 0

Powered by AerisWeather